This is the latest recevied weather packets stored in our database for station/object W4TJP. If no packets are shown the sender has not sent any weather packets the latest 10 day(s).
| Time | Temp. | Humidity | Pressure | Rain* | Wind** | Luminosity | Snow |
|---|---|---|---|---|---|---|---|
| 1777649204 | 17.22° C | 49% | 1014.4 hPa | 0 mm | - | 739 W/m² | - |
| 1777648901 | 16.67° C | 52% | 1014.6 hPa | 0 mm | - | 748 W/m² | - |
| 1777648295 | 17.22° C | 48% | 1014.5 hPa | 0 mm | - | 680 W/m² | - |
| 1777647992 | 17.22° C | 49% | 1014.5 hPa | 0 mm | - | 721 W/m² | - |
| 1777647688 | 16.11° C | 51% | 1014.6 hPa | 0 mm | - | 654 W/m² | - |
| 1777647384 | 16.67° C | 49% | 1014.6 hPa | 0 mm | - | 678 W/m² | - |
| 1777647082 | 16.67° C | 45% | 1014.8 hPa | 0 mm | - | 625 W/m² | - |
| 1777646778 | 17.22° C | 49% | 1014.9 hPa | 0 mm | - | 624 W/m² | - |
| 1777646478 | 16.67° C | 46% | 1014.6 hPa | 0 mm | - | 620 W/m² | - |
| 1777646175 | 16.67° C | 44% | 1014.7 hPa | 0 mm | - | 618 W/m² | - |
| 1777645872 | 16.67° C | 49% | 1014.6 hPa | 0 mm | - | 600 W/m² | - |
| 1777645569 | 17.22° C | 47% | 1014.5 hPa | 0 mm | - | 596 W/m² | - |
| 1777645265 | 17.22° C | 49% | 1014.3 hPa | 0 mm | - | 572 W/m² | - |
| 1777644961 | 16.67° C | 51% | 1014.5 hPa | 0 mm | - | 570 W/m² | - |
| 1777644659 | 16.11° C | 51% | 1014.3 hPa | 0 mm | - | 554 W/m² | - |
| 1777644355 | 17.22° C | 44% | 1014.3 hPa | 0 mm | - | 529 W/m² | - |
| 1777644051 | 17.22° C | 46% | 1014.2 hPa | 0 mm | - | 499 W/m² | - |
| 1777643748 | 16.67° C | 46% | 1014.2 hPa | 0 mm | - | 488 W/m² | - |
| 1777643446 | 16.11° C | 48% | 1014.2 hPa | 0 mm | - | 463 W/m² | - |
| 1777643142 | 17.22° C | 52% | 1014.2 hPa | 0 mm | - | 438 W/m² | - |
| 1777642839 | 16.11° C | 55% | 1014.1 hPa | 0 mm | - | 386 W/m² | - |
| 1777642536 | 16.67° C | 55% | 1014.1 hPa | 0 mm | - | 356 W/m² | - |
| 1777642232 | 16.11° C | 56% | 1014.2 hPa | 0 mm | - | 326 W/m² | - |
| 1777641930 | 15.56° C | 67% | 1014.3 hPa | 0 mm | - | 323 W/m² | - |
| 1777641625 | 15° C | 70% | 1014.3 hPa | 0 mm | - | 250 W/m² | - |
* Rain latest hour (hover to see other rain measurements)
** Current wind speed in m/s (hover to see current wind gust speed)